Total_Precipitation_Accumulation
0.35 0.36 0.33 0.34 0.32 0.26 0.22 0.23 0.19 0.16 0.15 0.13 0.10 0.08 0.06 0.06 0.05 0.05 0.05 0.04 0.03 0.03 0.05 0.08 0.09 0.11 0.13 0.16 0.20 0.22 0.21 0.19 0.19 0.19 0.19 0.20 0.20 0.21 0.21 0.23 0.24 0.24 0.25
0.38 0.36 0.35 0.33 0.31 0.28 0.26 0.25 0.20 0.20 0.19 0.16 0.12 0.10 0.08 0.07 0.07 0.06 0.05 0.04 0.04 0.03 0.04 0.06 0.10 0.14 0.18 0.21 0.26 0.28 0.26 0.23 0.21 0.22 0.23 0.23 0.24 0.24 0.25 0.27 0.27 0.28 0.29
0.50 0.46 0.43 0.37 0.32 0.30 0.32 0.34 0.33 0.27 0.22 0.19 0.14 0.13 0.12 0.10 0.10 0.08 0.07 0.05 0.04 0.03 0.03 0.04 0.08 0.12 0.16 0.22 0.28 0.32 0.31 0.29 0.27 0.27 0.28 0.29 0.30 0.30 0.32 0.34 0.36 0.37 0.40
0.55 0.54 0.49 0.44 0.40 0.39 0.36 0.37 0.38 0.37 0.31 0.26 0.20 0.17 0.15 0.13 0.11 0.11 0.10 0.08 0.06 0.04 0.03 0.04 0.06 0.09 0.13 0.19 0.26 0.34 0.35 0.34 0.32 0.30 0.31 0.33 0.34 0.36 0.40 0.43 0.47 0.50 0.54
0.61 0.57 0.53 0.50 0.50 0.47 0.40 0.34 0.34 0.34 0.32 0.29 0.25 0.21 0.18 0.16 0.15 0.14 0.12 0.11 0.10 0.09 0.07 0.05 0.05 0.07 0.09 0.13 0.18 0.28 0.37 0.41 0.40 0.39 0.38 0.38 0.38 0.41 0.44 0.48 0.54 0.60 0.68
0.74 0.65 0.62 0.57 0.56 0.58 0.54 0.45 0.38 0.36 0.34 0.31 0.31 0.27 0.23 0.19 0.17 0.15 0.14 0.13 0.12 0.11 0.10 0.09 0.08 0.07 0.08 0.11 0.14 0.20 0.30 0.39 0.43 0.43 0.42 0.43 0.42 0.43 0.47 0.53 0.61 0.71 0.83
0.91 0.81 0.71 0.70 0.66 0.62 0.60 0.59 0.56 0.52 0.50 0.49 0.49 0.42 0.32 0.27 0.23 0.18 0.17 0.17 0.16 0.16 0.14 0.12 0.10 0.10 0.10 0.10 0.12 0.16 0.21 0.31 0.44 0.50 0.50 0.49 0.49 0.52 0.57 0.66 0.77 0.85 0.95
1.02 0.97 0.87 0.79 0.76 0.74 0.70 0.69 0.69 0.67 0.63 0.66 0.70 0.71 0.57 0.43 0.30 0.24 0.23 0.22 0.22 0.24 0.23 0.21 0.19 0.16 0.14 0.13 0.12 0.14 0.17 0.21 0.32 0.50 0.62 0.65 0.68 0.70 0.77 0.88 1.01 1.10 1.17
1.29 1.16 1.13 1.06 0.91 0.84 0.78 0.74 0.73 0.73 0.72 0.71 0.71 0.81 0.77 0.59 0.44 0.35 0.28 0.25 0.25 0.27 0.27 0.26 0.24 0.21 0.17 0.15 0.15 0.16 0.19 0.22 0.27 0.41 0.64 0.82 0.91 1.01 1.13 1.24 1.34 1.43 1.48
1.59 1.53 1.40 1.34 1.22 1.06 0.93 0.90 0.87 0.86 0.89 0.86 0.82 0.76 0.71 0.64 0.64 0.53 0.38 0.32 0.30 0.29 0.31 0.30 0.27 0.24 0.23 0.21 0.20 0.23 0.27 0.30 0.36 0.46 0.64 0.87 1.08 1.31 1.54 1.69 1.78 1.83 1.80
1.64 1.62 1.59 1.51 1.41 1.30 1.21 1.15 1.09 1.06 1.05 1.01 0.95 0.89 0.86 0.77 0.72 0.73 0.54 0.38 0.38 0.37 0.39 0.39 0.37 0.36 0.35 0.34 0.33 0.35 0.41 0.44 0.49 0.59 0.76 0.99 1.29 1.60 1.87 2.04 2.10 2.05 1.98
1.77 1.62 1.59 1.58 1.52 1.48 1.43 1.40 1.37 1.27 1.20 1.15 1.10 1.04 1.04 0.99 0.86 0.88 0.81 0.60 0.54 0.48 0.48 0.49 0.49 0.49 0.48 0.49 0.49 0.52 0.51 0.52 0.59 0.71 0.92 1.18 1.36 1.53 1.70 1.92 2.07 2.13 2.15
1.77 1.68 1.62 1.62 1.62 1.55 1.53 1.53 1.49 1.38 1.31 1.25 1.22 1.18 1.14 1.08 1.04 1.08 1.11 0.96 0.82 0.67 0.60 0.57 0.56 0.57 0.59 0.61 0.62 0.68 0.64 0.65 0.68 0.71 0.84 1.10 1.23 1.26 1.29 1.42 1.68 1.91 2.05
1.75 1.73 1.73 1.65 1.64 1.62 1.57 1.55 1.50 1.40 1.35 1.31 1.26 1.25 1.22 1.15 1.16 1.20 1.25 1.32 1.22 0.96 0.78 0.67 0.64 0.69 0.72 0.74 0.77 0.80 0.68 0.69 0.67 0.68 0.74 0.84 0.89 0.88 0.91 1.01 1.18 1.38 1.58
1.64 1.60 1.60 1.55 1.51 1.49 1.48 1.50 1.46 1.37 1.32 1.27 1.23 1.22 1.20 1.14 1.16 1.20 1.26 1.41 1.58 1.42 1.03 0.77 0.72 0.73 0.79 0.80 0.84 0.80 0.70 0.74 0.73 0.70 0.69 0.67 0.67 0.69 0.73 0.81 0.93 1.04 1.17
1.35 1.37 1.38 1.38 1.35 1.35 1.34 1.34 1.32 1.31 1.29 1.21 1.16 1.15 1.12 1.08 1.11 1.17 1.24 1.31 1.46 1.57 1.32 0.87 0.72 0.68 0.70 0.70 0.74 0.70 0.64 0.72 0.68 0.63 0.60 0.59 0.60 0.62 0.65 0.71 0.77 0.85 0.94
1.07 1.09 1.07 1.08 1.12 1.14 1.16 1.17 1.17 1.18 1.21 1.17 1.15 1.15 1.14 1.11 1.12 1.12 1.15 1.19 1.25 1.36 1.33 0.96 0.77 0.73 0.71 0.66 0.63 0.61 0.56 0.57 0.55 0.59 0.57 0.57 0.58 0.60 0.62 0.65 0.70 0.74 0.80
0.92 0.91 0.89 0.86 0.86 0.88 0.92 0.94 0.95 0.99 1.04 1.05 1.05 1.08 1.08 1.11 1.14 1.11 1.10 1.08 1.06 1.06 1.14 0.99 0.74 0.68 0.65 0.63 0.64 0.63 0.57 0.53 0.48 0.54 0.56 0.55 0.58 0.59 0.60 0.63 0.69 0.74 0.77
0.84 0.80 0.78 0.76 0.74 0.73 0.75 0.80 0.85 0.88 0.91 0.92 0.92 0.95 0.96 1.00 1.02 0.99 0.98 0.95 0.93 0.95 1.01 1.01 0.81 0.68 0.64 0.61 0.65 0.64 0.59 0.56 0.51 0.56 0.62 0.63 0.65 0.65 0.66 0.69 0.71 0.76 0.79
0.88 0.79 0.74 0.71 0.70 0.71 0.72 0.75 0.82 0.87 0.87 0.87 0.88 0.89 0.87 0.84 0.82 0.81 0.84 0.87 0.93 1.01 1.02 1.05 0.94 0.77 0.70 0.64 0.68 0.67 0.64 0.59 0.59 0.58 0.67 0.71 0.72 0.72 0.70 0.72 0.75 0.78 0.81
0.86 0.86 0.81 0.77 0.74 0.72 0.75 0.80 0.81 0.85 0.86 0.85 0.82 0.79 0.79 0.80 0.77 0.75 0.77 0.82 0.91 1.04 1.13 1.19 1.11 0.95 0.82 0.74 0.69 0.68 0.75 0.75 0.74 0.69 0.69 0.71 0.72 0.73 0.74 0.76 0.79 0.78 0.81
0.81 0.88 0.92 0.90 0.84 0.82 0.92 0.90 0.84 0.84 0.87 0.85 0.81 0.74 0.72 0.76 0.73 0.74 0.76 0.84 0.97 1.11 1.24 1.28 1.24 1.08 0.86 0.74 0.75 0.86 0.97 1.11 1.04 0.72 0.74 0.78 0.76 0.83 0.80 0.77 0.88 0.92 0.91
0.90 0.91 0.97 1.00 0.98 1.00 1.01 0.89 0.87 0.80 0.80 0.80 0.77 0.73 0.69 0.66 0.69 0.64 0.70 0.82 0.91 1.01 1.06 1.06 1.04 0.87 0.77 0.73 0.91 1.14 1.17 1.20 1.02 0.75 0.87 1.00 0.88 0.88 0.83 0.85 0.99 0.95 0.91
0.92 0.96 0.98 0.98 0.95 0.95 0.94 0.84 0.80 0.74 0.74 0.74 0.72 0.68 0.69 0.69 0.68 0.73 0.78 0.84 0.77 0.72 0.74 0.74 0.76 0.75 0.77 0.85 1.09 1.37 1.46 1.46 1.24 1.04 1.03 1.12 0.91 0.84 0.82 0.85 0.97 0.91 0.84
0.88 0.85 0.86 0.88 0.87 0.88 0.85 0.76 0.72 0.67 0.68 0.65 0.63 0.61 0.62 0.64 0.75 0.91 0.95 0.95 0.78 0.62 0.63 0.73 0.82 0.83 0.86 0.93 1.03 1.34 1.57 1.68 1.47 1.09 0.95 1.02 0.95 0.90 0.89 0.85 0.87 0.92 0.86
0.81 0.76 0.72 0.71 0.70 0.72 0.75 0.70 0.67 0.63 0.65 0.62 0.58 0.57 0.62 0.64 0.76 0.91 0.89 0.93 0.87 0.72 0.70 0.73 0.76 0.79 0.76 0.82 0.99 1.14 1.58 2.04 1.81 1.35 0.90 0.98 1.01 1.08 1.27 0.93 0.81 0.83 0.85